TimeCET,TemperatureF,Dew PointF,Humidity,Sea Level PressureIn,VisibilityMPH,Wind Direction,Wind SpeedMPH,Gust SpeedMPH,PrecipitationIn,Events,Conditions,WindDirDegrees,DateUTC
12:00 AM,51.8,51.8,100,29.86,5.0,South,4.6,-,N/A,,Mostly Cloudy,190,2012-11-09 23:00:00
12:30 AM,51.8,51.8,100,29.86,3.7,SSW,6.9,-,N/A,,Mostly Cloudy,200,2012-11-09 23:30:00
1:00 AM,51.8,51.8,100,29.83,4.3,SSW,8.1,-,N/A,,Mostly Cloudy,200,2012-11-10 00:00:00
1:30 AM,51.8,51.8,100,29.83,3.1,SSW,9.2,-,N/A,Rain,Light Rain,200,2012-11-10 00:30:00
2:00 AM,51.8,51.8,100,29.80,3.1,South,9.2,-,N/A,,Drizzle,190,2012-11-10 01:00:00
2:30 AM,51.8,51.8,100,29.80,4.3,SSW,10.4,-,N/A,Rain,Light Rain,200,2012-11-10 01:30:00
3:00 AM,51.8,51.8,100,29.77,3.1,SW,12.7,24.2,N/A,Rain,Light Rain,220,2012-11-10 02:00:00
3:30 AM,51.8,51.8,100,29.77,2.5,SW,6.9,-,N/A,Rain,Light Rain,230,2012-11-10 02:30:00
4:00 AM,51.8,51.8,100,29.77,2.5,WSW,6.9,-,N/A,Rain,Light Rain,250,2012-11-10 03:00:00
4:30 AM,51.8,51.8,100,29.77,3.7,West,11.5,-,N/A,,Drizzle,280,2012-11-10 03:30:00
5:00 AM,50.0,50.0,100,29.77,3.7,West,6.9,-,N/A,Rain,Light Rain,280,2012-11-10 04:00:00
5:30 AM,50.0,50.0,100,29.77,5.0,WSW,6.9,-,N/A,,Light Drizzle,250,2012-11-10 04:30:00
6:00 AM,50.0,50.0,100,29.80,5.0,West,9.2,-,N/A,,Light Drizzle,260,2012-11-10 05:00:00
6:30 AM,50.0,50.0,100,29.80,5.0,WNW,6.9,-,N/A,,Mostly Cloudy,300,2012-11-10 05:30:00
7:00 AM,50.0,50.0,100,29.80,5.6,WNW,3.5,-,N/A,,Mostly Cloudy,290,2012-11-10 06:00:00
7:30 AM,50.0,50.0,100,29.83,6.2,West,6.9,-,N/A,,Mostly Cloudy,280,2012-11-10 06:30:00
8:00 AM,48.2,48.2,100,29.83,6.2,West,3.5,-,N/A,,Mostly Cloudy,280,2012-11-10 07:00:00
8:30 AM,48.2,48.2,100,29.83,6.2,Variable,2.3,-,N/A,,Mostly Cloudy,0,2012-11-10 07:30:00
9:00 AM,48.2,48.2,100,29.83,6.2,Variable,2.3,-,N/A,Fog,Patches of Fog,0,2012-11-10 08:00:00
9:30 AM,50.0,50.0,100,29.86,6.2,Variable,2.3,-,N/A,Fog,Patches of Fog,0,2012-11-10 08:30:00
10:00 AM,50.0,50.0,100,29.86,2.5,WSW,3.5,-,N/A,Rain,Light Rain,250,2012-11-10 09:00:00
10:12 AM,48.2,48.2,100,29.86,1.2,NW,13.8,26.5,N/A,Rain,Rain,310,2012-11-10 09:12:00
10:30 AM,48.2,48.2,100,29.86,3.7,Variable,2.3,-,N/A,,Mostly Cloudy,0,2012-11-10 09:30:00
11:00 AM,48.2,48.2,100,29.86,6.2,Variable,1.2,-,N/A,Rain,Light Rain,0,2012-11-10 10:00:00
11:30 AM,50.0,50.0,100,29.86,6.2,Variable,1.2,-,N/A,,Partly Cloudy,0,2012-11-10 10:30:00
12:00 PM,51.8,48.2,88,29.86,5.0,Variable,1.2,-,N/A,,Mostly Cloudy,0,2012-11-10 11:00:00
12:30 PM,50.0,48.2,94,29.86,3.7,WNW,5.8,-,N/A,,Mostly Cloudy,290,2012-11-10 11:30:00
1:00 PM,50.0,48.2,94,29.86,6.2,West,5.8,-,N/A,,Mostly Cloudy,280,2012-11-10 12:00:00
1:30 PM,51.8,48.2,88,29.86,6.2,NW,8.1,-,N/A,,Scattered Clouds,310,2012-11-10 12:30:00
2:00 PM,53.6,44.6,72,29.86,6.2,WNW,9.2,-,N/A,,Scattered Clouds,300,2012-11-10 13:00:00
2:30 PM,50.0,44.6,82,29.86,6.2,West,8.1,-,N/A,,Partly Cloudy,280,2012-11-10 13:30:00
3:00 PM,51.8,44.6,76,29.86,6.2,WNW,9.2,-,N/A,,Partly Cloudy,300,2012-11-10 14:00:00
3:30 PM,51.8,44.6,76,29.86,6.2,WNW,9.2,-,N/A,,Scattered Clouds,300,2012-11-10 14:30:00
4:00 PM,51.8,46.4,82,29.86,6.2,WNW,5.8,-,N/A,,Partly Cloudy,290,2012-11-10 15:00:00
4:30 PM,50.0,42.8,76,29.86,6.2,WNW,8.1,-,N/A,,Scattered Clouds,300,2012-11-10 15:30:00
5:00 PM,51.8,42.8,71,29.86,6.2,WNW,8.1,-,N/A,,Scattered Clouds,300,2012-11-10 16:00:00
5:30 PM,50.0,42.8,76,29.89,6.2,WNW,4.6,-,N/A,,Scattered Clouds,300,2012-11-10 16:30:00
6:00 PM,46.4,42.8,87,29.86,6.2,WNW,3.5,-,N/A,,Scattered Clouds,300,2012-11-10 17:00:00
6:30 PM,46.4,42.8,87,29.89,6.2,Variable,1.2,-,N/A,,Partly Cloudy,0,2012-11-10 17:30:00
7:00 PM,46.4,44.6,93,29.89,6.2,Variable,1.2,-,N/A,,Scattered Clouds,0,2012-11-10 18:00:00
7:30 PM,46.4,42.8,87,29.89,6.2,West,3.5,-,N/A,,Partly Cloudy,280,2012-11-10 18:30:00
8:00 PM,44.6,44.6,100,29.89,6.2,Variable,1.2,-,N/A,,Partly Cloudy,0,2012-11-10 19:00:00
8:30 PM,44.6,44.6,100,29.89,3.7,Variable,2.3,-,N/A,Rain,Light Rain Showers,0,2012-11-10 19:30:00
9:00 PM,44.6,42.8,93,29.89,6.2,Variable,2.3,-,N/A,,Partly Cloudy,0,2012-11-10 20:00:00
9:30 PM,42.8,42.8,100,29.89,6.2,Variable,1.2,-,N/A,,Partly Cloudy,0,2012-11-10 20:30:00
10:00 PM,44.6,44.6,100,29.89,6.2,Variable,2.3,-,N/A,,Scattered Clouds,0,2012-11-10 21:00:00
10:30 PM,44.6,44.6,100,29.92,6.2,Variable,1.2,-,N/A,,Scattered Clouds,0,2012-11-10 21:30:00
11:00 PM,44.6,44.6,100,29.92,6.2,West,4.6,-,N/A,Rain,Light Rain Showers,260,2012-11-10 22:00:00
11:30 PM,42.8,42.8,100,29.92,6.2,Calm,Calm,-,N/A,,Partly Cloudy,0,2012-11-10 22:30:00